Weather History for West Palm Beach, FL

Change the Weather History Date:

Friday, May 17, 2013

  Actual Average Record
Temperature  
Mean Temperature 76 °F 79 °F  
Max Temperature 82 °F 86 °F 94 °F (1989)
Min Temperature 69 °F 71 °F 51 °F (1927)
Degree Days  
Heating Degree Days 0 0  
Month to date heating degree days 0 0  
Since 1 July heating degree days 164 233  
Cooling Degree Days 11 14  
Month to date cooling degree days 177 208  
Year to date cooling degree days 1004 903  
Growing Degree Days 26 (Base 50)    
Moisture  
Dew Point 68 °F    
Average Humidity 74    
Maximum Humidity 87    
Minimum Humidity 60    
Precipitation  
Precipitation 0.08 in 0.14 in 2.21 in (2012)
Month to date precipitation 5.35 1.79  
Year to date precipitation 14.63 15.99  
Snow  
Snow 0.00 in - - ()
Month to date snowfall 0.0  
Since 1 July snowfall 0.0  
Snow Depth 0.00 in    
Sea Level Pressure  
Sea Level Pressure 30.06 in    
Wind  
Wind Speed 9 mph (ENE)    
Max Wind Speed 20 mph    
Max Gust Speed 25 mph    
Visibility 10 miles    
Events Tornado    
T = Trace of Precipitation, MM = Missing Value Source: NWS Daily Summary

Daily Weather History Graph

Daily Weather History Graph

Search for Another Location

Airport:

Trip Planner

Search our weather history database for the weather conditions in past years. The results will help you decide how hot, cold, wet, or windy it might be!

Date:

Astronomy

May. 17, 2013 Rise Set
Actual Time 6:31 AM EDT 8:01 PM EDT
Civil Twilight 6:06 AM EDT 8:27 PM EDT
Nautical Twilight 5:36 AM EDT 8:57 PM EDT
Astronomical Twilight 5:05 AM EDT 9:29 PM EDT
Moon 12:47 PM EDT (5/17) 1:07 AM EDT (5/17)
Length of Visible Light 14h 20m
Length of Day
13h 29m
Waxing Crescent, 45% of the Moon is Illuminated
May 17
Waxing Crescent
May 18
First Quarter
May 25
Full
May 31
Last Quarter
Jun 8
New

Hourly Weather History & Observations

Time (EDT) Temp. Heat Index Dew Point Humidity Pressure Visibility Wind Dir Wind Speed Gust Speed Precip Events Conditions
12:53 AM 75.0 °F - 61.0 °F 62% 30.06 in 10.0 mi SE 8.1 mph - N/A   Scattered Clouds
1:53 AM 73.9 °F - 62.1 °F 66% 30.05 in 10.0 mi SE 4.6 mph - N/A   Scattered Clouds
2:53 AM 73.0 °F - 63.0 °F 71% 30.04 in 10.0 mi East 4.6 mph - N/A   Scattered Clouds
3:53 AM 75.0 °F - 64.0 °F 69% 30.02 in 10.0 mi SE 4.6 mph - N/A   Mostly Cloudy
4:53 AM 75.0 °F - 64.9 °F 71% 30.02 in 10.0 mi SE 4.6 mph - N/A   Mostly Cloudy
5:53 AM 70.0 °F - 64.0 °F 81% 30.03 in 10.0 mi Calm Calm - N/A   Scattered Clouds
6:53 AM 70.0 °F - 64.9 °F 84% 30.05 in 10.0 mi Calm Calm - N/A   Mostly Cloudy
7:53 AM 73.0 °F - 66.9 °F 81% 30.06 in 10.0 mi North 3.5 mph - N/A   Mostly Cloudy
8:22 AM 75.2 °F - 66.2 °F 73% 30.07 in 10.0 mi North 4.6 mph - N/A   Mostly Cloudy
8:53 AM 77.0 °F - 66.9 °F 71% 30.07 in 10.0 mi NE 3.5 mph - N/A   Mostly Cloudy
9:12 AM 80.6 °F 83.9 °F 69.8 °F 70% 30.07 in 10.0 mi NE 6.9 mph - N/A   Mostly Cloudy
9:27 AM 78.8 °F - 68.0 °F 69% 30.07 in 10.0 mi East 9.2 mph - N/A   Mostly Cloudy
9:53 AM 78.1 °F - 68.0 °F 71% 30.08 in 10.0 mi ENE 8.1 mph - N/A   Mostly Cloudy
10:45 AM 73.4 °F - 69.8 °F 88% 30.08 in 10.0 mi North 6.9 mph - 0.06 in Tornado Funnel Cloud
10:53 AM 75.0 °F - 71.1 °F 87% 30.08 in 10.0 mi NNW 8.1 mph - 0.06 in Tornado Funnel Cloud
10:57 AM 73.4 °F - 71.6 °F 94% 30.08 in 10.0 mi NW 9.2 mph - N/A   Mostly Cloudy
11:53 AM 77.0 °F - 70.0 °F 79% 30.08 in 10.0 mi NNE 8.1 mph - 0.02 in   Overcast
12:33 PM 80.6 °F 83.9 °F 69.8 °F 70% 30.08 in 10.0 mi East 9.2 mph - N/A   Mostly Cloudy
12:53 PM 80.1 °F 83.2 °F 70.0 °F 71% 30.08 in 10.0 mi ENE 11.5 mph - N/A   Mostly Cloudy
1:53 PM 81.0 °F 84.4 °F 70.0 °F 69% 30.07 in 10.0 mi East 16.1 mph 25.3 mph N/A   Mostly Cloudy
2:53 PM 81.0 °F 84.4 °F 70.0 °F 69% 30.07 in 10.0 mi ENE 15.0 mph - N/A   Mostly Cloudy
2:59 PM 80.6 °F 83.9 °F 69.8 °F 70% 30.07 in 10.0 mi ENE 17.3 mph - N/A   Mostly Cloudy
3:53 PM 81.0 °F 84.9 °F 71.1 °F 72% 30.06 in 10.0 mi East 16.1 mph - N/A   Mostly Cloudy
4:24 PM 80.6 °F 83.9 °F 69.8 °F 70% 30.06 in 10.0 mi East 15.0 mph - N/A   Scattered Clouds
4:53 PM 81.0 °F 83.8 °F 68.0 °F 65% 30.06 in 10.0 mi East 15.0 mph - N/A   Scattered Clouds
5:53 PM 81.0 °F 84.9 °F 71.1 °F 72% 30.06 in 10.0 mi East 16.1 mph - N/A   Scattered Clouds
6:53 PM 79.0 °F - 68.0 °F 69% 30.06 in 10.0 mi East 13.8 mph - N/A   Scattered Clouds
7:53 PM 78.1 °F - 69.1 °F 74% 30.06 in 10.0 mi East 13.8 mph - N/A   Scattered Clouds
8:53 PM 78.1 °F - 70.0 °F 76% 30.08 in 10.0 mi East 11.5 mph - N/A   Scattered Clouds
9:53 PM 77.0 °F - 69.1 °F 76% 30.09 in 10.0 mi East 12.7 mph - N/A   Scattered Clouds
10:53 PM 77.0 °F - 69.1 °F 76% 30.09 in 10.0 mi ESE 11.5 mph - N/A   Scattered Clouds
11:53 PM 77.0 °F - 70.0 °F 79% 30.09 in 10.0 mi ESE 10.4 mph - N/A   Scattered Clouds